******** Week 292 almanac for PRN-02 ******** ID: 02 Health: 000 Eccentricity: 0.1638936996E-001 Time of Applicability(s): 405504.0000 Orbital Inclination(rad): 0.9665780724 Rate of Right Ascen(r/s): -0.8103194673E-008 SQRT(A) (m 1/2): 5153.634766 Right Ascen at Week(rad): -0.1071154142E+001 Argument of Perigee(rad): -1.101433784 Mean Anom(rad): -0.2481148760E+001 Af0(s): -0.3147125244E-003 Af1(s/s): 0.7275957614E-011 week: 292 ******** Week 292 almanac for PRN-03 ******** ID: 03 Health: 000 Eccentricity: 0.5668163300E-002 Time of Applicability(s): 405504.0000 Orbital Inclination(rad): 0.9872987972 Rate of Right Ascen(r/s): -0.7406022776E-008 SQRT(A) (m 1/2): 5153.589844 Right Ascen at Week(rad): 0.6642181752E-001 Argument of Perigee(rad): 1.159212354 Mean Anom(rad): 0.2982869834E+000 Af0(s): 0.5998611450E-003 Af1(s/s): 0.1091393642E-010 week: 292 ******** Week 292 almanac for PRN-04 ******** ID: 04 Health: 000 Eccentricity: 0.3146171570E-002 Time of Applicability(s): 405504.0000 Orbital Inclination(rad): 0.9658290583 Rate of Right Ascen(r/s): -0.8011762293E-008 SQRT(A) (m 1/2): 5153.625488 Right Ascen at Week(rad): 0.1142995450E+001 Argument of Perigee(rad): -3.001640875 Mean Anom(rad): -0.2931636898E+001 Af0(s): 0.4796981812E-003 Af1(s/s): 0.7275957614E-011 week: 292 ******** Week 292 almanac for PRN-05 ******** ID: 05 Health: 000 Eccentricity: 0.5705356598E-002 Time of Applicability(s): 405504.0000 Orbital Inclination(rad): 0.9741880552 Rate of Right Ascen(r/s): -0.7508884204E-008 SQRT(A) (m 1/2): 5153.660645 Right Ascen at Week(rad): 0.1288266727E-001 Argument of Perigee(rad): 1.336065808 Mean Anom(rad): -0.2304265720E+001 Af0(s): -0.1926422119E-003 Af1(s/s): 0.0000000000E+000 week: 292 ******** Week 292 almanac for PRN-06 ******** ID: 06 Health: 000 Eccentricity: 0.3268241882E-002 Time of Applicability(s): 405504.0000 Orbital Inclination(rad): 0.9893301233 Rate of Right Ascen(r/s): -0.7806039439E-008 SQRT(A) (m 1/2): 5153.688965 Right Ascen at Week(rad): -0.9689942419E+000 Argument of Perigee(rad): -0.770615247 Mean Anom(rad): 0.1760911075E+001 Af0(s): -0.1144409180E-003 Af1(s/s): -0.2910383046E-010 week: 292 ******** Week 292 almanac for PRN-07 ******** ID: 07 Health: 000 Eccentricity: 0.1884555817E-001 Time of Applicability(s): 405504.0000 Orbital Inclination(rad): 0.9501297237 Rate of Right Ascen(r/s): -0.7931758961E-008 SQRT(A) (m 1/2): 5153.533203 Right Ascen at Week(rad): 0.2155243381E+001 Argument of Perigee(rad): -2.094112974 Mean Anom(rad): 0.8800300973E+000 Af0(s): -0.2002716064E-004 Af1(s/s): 0.3637978807E-011 week: 292 ******** Week 292 almanac for PRN-08 ******** ID: 08 Health: 000 Eccentricity: 0.9942054749E-002 Time of Applicability(s): 405504.0000 Orbital Inclination(rad): 0.9504832583 Rate of Right Ascen(r/s): -0.8457495146E-008 SQRT(A) (m 1/2): 5153.653809 Right Ascen at Week(rad): -0.2071433577E+001 Argument of Perigee(rad): 0.378620239 Mean Anom(rad): -0.2616201987E+001 Af0(s): 0.4138946533E-003 Af1(s/s): 0.1091393642E-010 week: 292 ******** Week 292 almanac for PRN-09 ******** ID: 09 Health: 000 Eccentricity: 0.3189086914E-002 Time of Applicability(s): 405504.0000 Orbital Inclination(rad): 0.9596152377 Rate of Right Ascen(r/s): -0.8057478483E-008 SQRT(A) (m 1/2): 5153.498047 Right Ascen at Week(rad): 0.1082142552E+001 Argument of Perigee(rad): 2.013664370 Mean Anom(rad): -0.2088136965E+001 Af0(s): 0.4434585571E-003 Af1(s/s): 0.1818989404E-010 week: 292 ******** Week 292 almanac for PRN-10 ******** ID: 10 Health: 000 Eccentricity: 0.9945392609E-002 Time of Applicability(s): 405504.0000 Orbital Inclination(rad): 0.9869332784 Rate of Right Ascen(r/s): -0.7383164681E-008 SQRT(A) (m 1/2): 5153.646973 Right Ascen at Week(rad): 0.6389015001E-001 Argument of Perigee(rad): -2.361872391 Mean Anom(rad): -0.6574736782E+000 Af0(s): -0.1955032349E-003 Af1(s/s): -0.1455191523E-010 week: 292 ******** Week 292 almanac for PRN-11 ******** ID: 11 Health: 000 Eccentricity: 0.1765251160E-002 Time of Applicability(s): 405504.0000 Orbital Inclination(rad): 0.9660028296 Rate of Right Ascen(r/s): -0.8034620388E-008 SQRT(A) (m 1/2): 5153.525879 Right Ascen at Week(rad): -0.9397366293E+000 Argument of Perigee(rad): -2.405310338 Mean Anom(rad): 0.2763908682E+001 Af0(s): -0.7495880127E-003 Af1(s/s): 0.0000000000E+000 week: 292 ******** Week 292 almanac for PRN-12 ******** ID: 12 Health: 000 Eccentricity: 0.8847236633E-002 Time of Applicability(s): 405504.0000 Orbital Inclination(rad): 0.9618263272 Rate of Right Ascen(r/s): -0.7714607059E-008 SQRT(A) (m 1/2): 5153.526855 Right Ascen at Week(rad): -0.3012214707E+001 Argument of Perigee(rad): 1.467930856 Mean Anom(rad): 0.1643846170E+000 Af0(s): -0.5521774292E-003 Af1(s/s): -0.3637978807E-011 week: 292 ******** Week 292 almanac for PRN-13 ******** ID: 13 Health: 000 Eccentricity: 0.8763790131E-002 Time of Applicability(s): 405504.0000 Orbital Inclination(rad): 0.9720668474 Rate of Right Ascen(r/s): -0.7977475151E-008 SQRT(A) (m 1/2): 5153.624023 Right Ascen at Week(rad): 0.1250668468E+001 Argument of Perigee(rad): 0.974096151 Mean Anom(rad): -0.2931048173E+001 Af0(s): 0.6856918335E-003 Af1(s/s): 0.0000000000E+000 week: 292 ******** Week 292 almanac for PRN-14 ******** ID: 14 Health: 000 Eccentricity: 0.5014896393E-002 Time of Applicability(s): 405504.0000 Orbital Inclination(rad): 0.9451562703 Rate of Right Ascen(r/s): -0.7874613724E-008 SQRT(A) (m 1/2): 5153.654785 Right Ascen at Week(rad): -0.3059320575E+001 Argument of Perigee(rad): -2.860498913 Mean Anom(rad): 0.8928622062E-002 Af0(s): 0.5397796631E-003 Af1(s/s): 0.7275957614E-011 week: 292 ******** Week 292 almanac for PRN-15 ******** ID: 15 Health: 000 Eccentricity: 0.1616191864E-001 Time of Applicability(s): 405504.0000 Orbital Inclination(rad): 0.9368512025 Rate of Right Ascen(r/s): -0.8286059433E-008 SQRT(A) (m 1/2): 5153.654785 Right Ascen at Week(rad): 0.9498370839E+000 Argument of Perigee(rad): 1.377060096 Mean Anom(rad): 0.2651669300E+001 Af0(s): 0.2279281616E-003 Af1(s/s): 0.3637978807E-011 week: 292 ******** Week 292 almanac for PRN-16 ******** ID: 16 Health: 000 Eccentricity: 0.1421642303E-001 Time of Applicability(s): 405504.0000 Orbital Inclination(rad): 0.9612151317 Rate of Right Ascen(r/s): -0.7726036106E-008 SQRT(A) (m 1/2): 5153.609375 Right Ascen at Week(rad): -0.2994566437E+001 Argument of Perigee(rad): 0.853792509 Mean Anom(rad): -0.1633031905E+001 Af0(s): -0.1287460327E-003 Af1(s/s): 0.1091393642E-010 week: 292 ******** Week 292 almanac for PRN-17 ******** ID: 17 Health: 000 Eccentricity: 0.1352548599E-001 Time of Applicability(s): 405504.0000 Orbital Inclination(rad): 0.9662065614 Rate of Right Ascen(r/s): -0.8308917528E-008 SQRT(A) (m 1/2): 5153.521973 Right Ascen at Week(rad): -0.1973991342E+001 Argument of Perigee(rad): -1.272741538 Mean Anom(rad): -0.2680031467E+001 Af0(s): 0.5588531494E-003 Af1(s/s): -0.1455191523E-010 week: 292 ******** Week 292 almanac for PRN-18 ******** ID: 18 Health: 000 Eccentricity: 0.4805564880E-002 Time of Applicability(s): 405504.0000 Orbital Inclination(rad): 0.9742120236 Rate of Right Ascen(r/s): -0.7954617056E-008 SQRT(A) (m 1/2): 5153.681152 Right Ascen at Week(rad): -0.9673505306E+000 Argument of Perigee(rad): -2.947947802 Mean Anom(rad): 0.1632071669E+001 Af0(s): -0.6599426270E-003 Af1(s/s): 0.0000000000E+000 week: 292 ******** Week 292 almanac for PRN-19 ******** ID: 19 Health: 000 Eccentricity: 0.9998321533E-002 Time of Applicability(s): 405504.0000 Orbital Inclination(rad): 0.9653916341 Rate of Right Ascen(r/s): -0.8343204671E-008 SQRT(A) (m 1/2): 5153.697754 Right Ascen at Week(rad): -0.1929740341E+001 Argument of Perigee(rad): 2.678224470 Mean Anom(rad): -0.8111470196E+000 Af0(s): 0.5626678467E-003 Af1(s/s): 0.3637978807E-011 week: 292 ******** Week 292 almanac for PRN-20 ******** ID: 20 Health: 000 Eccentricity: 0.3851890564E-002 Time of Applicability(s): 405504.0000 Orbital Inclination(rad): 0.9564813629 Rate of Right Ascen(r/s): -0.7691748964E-008 SQRT(A) (m 1/2): 5153.593262 Right Ascen at Week(rad): -0.1188359487E+000 Argument of Perigee(rad): -2.461789743 Mean Anom(rad): 0.2061895258E+001 Af0(s): 0.3690719604E-003 Af1(s/s): 0.0000000000E+000 week: 292 ******** Week 292 almanac for PRN-21 ******** ID: 21 Health: 000 Eccentricity: 0.2556133270E-001 Time of Applicability(s): 405504.0000 Orbital Inclination(rad): 0.9608196523 Rate of Right Ascen(r/s): -0.8160339911E-008 SQRT(A) (m 1/2): 5153.586426 Right Ascen at Week(rad): -0.1079367455E+001 Argument of Perigee(rad): -0.493673292 Mean Anom(rad): -0.2809951325E+001 Af0(s): 0.9727478027E-004 Af1(s/s): 0.0000000000E+000 week: 292 ******** Week 292 almanac for PRN-22 ******** ID: 22 Health: 000 Eccentricity: 0.1378870010E-001 Time of Applicability(s): 405504.0000 Orbital Inclination(rad): 0.9605679836 Rate of Right Ascen(r/s): -0.7714607059E-008 SQRT(A) (m 1/2): 5153.644043 Right Ascen at Week(rad): -0.2991272274E+001 Argument of Perigee(rad): -1.090577574 Mean Anom(rad): -0.2146156717E+001 Af0(s): -0.7915496826E-004 Af1(s/s): -0.3637978807E-011 week: 292 ******** Week 292 almanac for PRN-23 ******** ID: 23 Health: 000 Eccentricity: 0.4899978638E-002 Time of Applicability(s): 405504.0000 Orbital Inclination(rad): 0.9820556988 Rate of Right Ascen(r/s): -0.7451738966E-008 SQRT(A) (m 1/2): 5153.583008 Right Ascen at Week(rad): 0.3409287281E-001 Argument of Perigee(rad): -2.908415590 Mean Anom(rad): 0.5112560226E+000 Af0(s): 0.3633499146E-003 Af1(s/s): 0.7275957614E-011 week: 292 ******** Week 292 almanac for PRN-24 ******** ID: 24 Health: 000 Eccentricity: 0.1628684998E-001 Time of Applicability(s): 405504.0000 Orbital Inclination(rad): 0.9338012172 Rate of Right Ascen(r/s): -0.8206056101E-008 SQRT(A) (m 1/2): 5153.628418 Right Ascen at Week(rad): 0.2055186713E+001 Argument of Perigee(rad): 1.030321266 Mean Anom(rad): 0.1767706879E+001 Af0(s): -0.4806518555E-003 Af1(s/s): 0.3637978807E-011 week: 292 ******** Week 292 almanac for PRN-25 ******** ID: 25 Health: 000 Eccentricity: 0.1205396652E-001 Time of Applicability(s): 405504.0000 Orbital Inclination(rad): 0.9498840471 Rate of Right Ascen(r/s): -0.7806039439E-008 SQRT(A) (m 1/2): 5153.666504 Right Ascen at Week(rad): -0.3100657163E+001 Argument of Perigee(rad): 1.098476676 Mean Anom(rad): -0.2394747742E-001 Af0(s): 0.4987716675E-003 Af1(s/s): 0.0000000000E+000 week: 292 ******** Week 292 almanac for PRN-26 ******** ID: 26 Health: 000 Eccentricity: 0.9551525116E-002 Time of Applicability(s): 405504.0000 Orbital Inclination(rad): 0.9306373819 Rate of Right Ascen(r/s): -0.7966046104E-008 SQRT(A) (m 1/2): 5153.681641 Right Ascen at Week(rad): 0.3116887548E+001 Argument of Perigee(rad): 0.579163884 Mean Anom(rad): -0.7812823312E+000 Af0(s): 0.2670288086E-004 Af1(s/s): -0.1455191523E-010 week: 292 ******** Week 292 almanac for PRN-27 ******** ID: 27 Health: 000 Eccentricity: 0.1282453537E-001 Time of Applicability(s): 405504.0000 Orbital Inclination(rad): 0.9595073797 Rate of Right Ascen(r/s): -0.8377491813E-008 SQRT(A) (m 1/2): 5153.630371 Right Ascen at Week(rad): -0.2043473257E+001 Argument of Perigee(rad): 0.800622623 Mean Anom(rad): -0.2555084687E+001 Af0(s): -0.3433227539E-004 Af1(s/s): 0.0000000000E+000 week: 292 ******** Week 292 almanac for PRN-28 ******** ID: 28 Health: 000 Eccentricity: 0.4720687866E-003 Time of Applicability(s): 405504.0000 Orbital Inclination(rad): 0.9611671948 Rate of Right Ascen(r/s): -0.7828897534E-008 SQRT(A) (m 1/2): 5153.700195 Right Ascen at Week(rad): 0.2124112859E+001 Argument of Perigee(rad): 1.417686993 Mean Anom(rad): -0.3223666618E+000 Af0(s): -0.4787445068E-003 Af1(s/s): -0.1091393642E-010 week: 292 ******** Week 292 almanac for PRN-29 ******** ID: 29 Health: 000 Eccentricity: 0.2878189087E-002 Time of Applicability(s): 405504.0000 Orbital Inclination(rad): 0.9686872959 Rate of Right Ascen(r/s): -0.8308917528E-008 SQRT(A) (m 1/2): 5153.693359 Right Ascen at Week(rad): -0.1958530943E+001 Argument of Perigee(rad): 2.676001396 Mean Anom(rad): -0.2721282667E+001 Af0(s): -0.5636215210E-003 Af1(s/s): 0.3637978807E-011 week: 292 ******** Week 292 almanac for PRN-30 ******** ID: 30 Health: 000 Eccentricity: 0.7155895233E-002 Time of Applicability(s): 405504.0000 Orbital Inclination(rad): 0.9352932532 Rate of Right Ascen(r/s): -0.8080336578E-008 SQRT(A) (m 1/2): 5153.716309 Right Ascen at Week(rad): 0.2153300814E+001 Argument of Perigee(rad): -2.461689000 Mean Anom(rad): 0.7314620357E+000 Af0(s): -0.2822875977E-003 Af1(s/s): 0.7275957614E-011 week: 292 ******** Week 292 almanac for PRN-31 ******** ID: 31 Health: 000 Eccentricity: 0.1071596146E-001 Time of Applicability(s): 405504.0000 Orbital Inclination(rad): 0.9540785258 Rate of Right Ascen(r/s): -0.7886042771E-008 SQRT(A) (m 1/2): 5153.534668 Right Ascen at Week(rad): 0.2177480111E+001 Argument of Perigee(rad): 0.770577048 Mean Anom(rad): -0.1865749074E+000 Af0(s): -0.2222061157E-003 Af1(s/s): 0.0000000000E+000 week: 292 ******** Week 292 almanac for PRN-32 ******** ID: 32 Health: 000 Eccentricity: 0.8020877838E-002 Time of Applicability(s): 405504.0000 Orbital Inclination(rad): 0.9629228838 Rate of Right Ascen(r/s): -0.8000333246E-008 SQRT(A) (m 1/2): 5153.686035 Right Ascen at Week(rad): 0.1097440415E+001 Argument of Perigee(rad): -2.131064833 Mean Anom(rad): -0.1930023843E+001 Af0(s): -0.5741119385E-003 Af1(s/s): 0.3637978807E-011 week: 292